Home > Time Zones > World Clock > Weather > Italy > Bari > Past weeks

Flag for Italy Weather past 2 weeks in Bari, Italy

Now
61 °F

Passing clouds.


Feels Like: 61 °F
Forecast: 57 / 69 °F
Wind: 6 mph from Southwest

Location: Bari / Palese Macchie

Current Time: May 23, 2015 at 8:30:29 AM

Latest Report: May 23, 2015 at 7:50 AM


Visibility: N/A

Pressure: 29.86 "Hg

Humidity: 59%

Dew point: 46 °F

Location of BariLocation

Historic Weather in Bari — Graph

°F

Bari temperature yesterday

Maximum temperature yesterday: 68 °F (at 4:20 PM)
Minimum temperature yesterday: 54 °F (at 11:50 PM)
Average temperature yesterday: 60 °F

Past Weeks' High & Low Weather Summary

 TemperatureHumidityPressure
High88 °F (May 15, 2:20 PM)100% (May 18, 1:50 AM)30.27 "Hg (May 18, 1:50 AM)
Low48 °F (May 23, 6:20 AM)22% (May 15, 4:20 PM)29.74 "Hg (May 19, 4:50 AM)
Average68 °F60%29.96 "Hg
* Reported May 8 7:20 AM — May 23 7:20 AM, Bari, Weather by CustomWeather, © 2015

Note: Actual official high and low records may vary slightly from our data, if they occured in-between our weather recording intervals... More about our weather records

Advertising

Bari weather history for previous 24 hours

 ConditionsComfort  
Time TempWeatherWind HumidityBarometerVisibility
7:20 AM
Sat, May 23
55 °FPassing clouds.6 mph77%29.86 "HgN/A
6:50 AM52 °FPassing clouds.5 mph82%29.86 "HgN/A
6:20 AM48 °FPassing clouds.3 mph87%29.86 "HgN/A
5:20 AM50 °FPassing clouds.6 mph82%29.83 "HgN/A
4:50 AM50 °FPassing clouds.3 mph88%29.86 "HgN/A
4:20 AM50 °FPassing clouds.3 mph88%29.86 "HgN/A
3:50 AM50 °FPassing clouds.3 mph88%29.86 "HgN/A
3:20 AM50 °FPassing clouds.3 mph88%29.86 "HgN/A
2:50 AM52 °FPassing clouds.3 mph82%29.86 "HgN/A
2:20 AM52 °FPassing clouds.3 mph82%29.86 "HgN/A
1:50 AM52 °FPassing clouds.3 mph82%29.86 "HgN/A
1:20 AM52 °FPassing clouds.3 mph82%29.86 "HgN/A
12:50 AM52 °FPassing clouds.5 mph82%29.86 "HgN/A
12:20 AM52 °FPassing clouds.5 mph82%29.86 "HgN/A
11:50 PM
Fri, May 22
54 °FPassing clouds.6 mph77%29.86 "HgN/A
10:50 PM55 °FPassing clouds.7 mph72%29.86 "HgN/A
10:20 PM57 °FPassing clouds.7 mph63%29.86 "HgN/A
9:50 PM59 °FPassing clouds.5 mph59%29.83 "HgN/A
9:20 PM61 °FPassing clouds.9 mph52%29.83 "HgN/A
8:50 PM63 °FPassing clouds.12 mph52%29.83 "HgN/A
8:20 PM61 °FScattered clouds.6 mph39%29.80 "HgN/A
7:50 PM61 °FScattered clouds.5 mph77%29.80 "HgN/A
7:20 PM59 °FScattered clouds.5 mph88%29.80 "HgN/A
6:50 PM59 °FScattered clouds.3 mph88%29.80 "HgN/A
6:20 PM61 °FScattered showers. Scattered clouds.3 mph83%29.77 "Hg5 mi
5:50 PM63 °FLight rain. Scattered clouds.3 mph77%29.80 "Hg5 mi
4:50 PM64 °FScattered clouds.7 mph64%29.77 "HgN/A
4:20 PM68 °FPassing clouds.7 mph56%29.77 "HgN/A
3:50 PM64 °FPassing clouds.8 mph68%29.77 "HgN/A
3:20 PM63 °FPassing clouds.8 mph64%29.80 "HgN/A
2:50 PM63 °FScattered clouds.6 mph64%29.80 "HgN/A
2:20 PM64 °FPassing clouds.3 mph64%29.80 "HgN/A
1:50 PM63 °FScattered clouds.2 mph73%29.80 "HgN/A
1:20 PM63 °FScattered clouds.1 mph73%29.80 "HgN/A
12:50 PM59 °FScattered clouds.2 mph82%29.83 "HgN/A
12:20 PM57 °FScattered clouds.2 mph88%29.83 "HgN/A
11:50 AM57 °FScattered clouds.2 mph82%29.83 "HgN/A
11:20 AM57 °FRain. Scattered clouds.2 mph88%29.83 "Hg5 mi
10:50 AM57 °FRain. Scattered clouds.2 mph88%29.83 "Hg5 mi
10:20 AM57 °FRain. Scattered clouds.1 mph88%29.83 "Hg5 mi
9:50 AM57 °FScattered clouds.7 mph88%29.83 "HgN/A
9:20 AM55 °FRain. Broken clouds.8 mph94%29.86 "Hg3 mi
8:20 AM57 °FRain. Scattered clouds.8 mph88%29.86 "Hg4 mi
Weather by CustomWeather, © 2015

See weather overviewHow to use our weather pages